Date,TemperatureHighF,TemperatureAvgF,TemperatureLowF,DewpointHighF,DewpointAvgF,DewpointLowF,HumidityHigh,HumidityAvg,HumidityLow,PressureMaxIn,PressureMinIn,WindSpeedMaxMPH,WindSpeedAvgMPH,GustSpeedMaxMPH,PrecipitationSumIn
2013-4-1,71.5,59.3,53.6,58.9,34.6,-33.2,100,56,2,29.90,29.77,5,1,20,0.05
2013-4-2,61.0,47.2,35.1,61.0,42.7,11.5,100,91,21,30.14,29.95,2,0,13,0.00
2013-4-3,60.0,45.8,35.1,60.0,45.8,35.1,100,100,100,30.27,30.12,1,0,10,0.00
2013-4-4,49.7,42.1,38.3,49.7,42.1,38.3,100,100,100,30.35,29.95,1,0,10,0.71
2013-4-5,61.5,47.6,39.5,61.5,47.6,39.5,100,100,100,29.99,29.86,2,0,7,0.09
2013-4-6,65.0,50.1,39.0,65.0,50.1,39.0,100,100,100,30.25,29.99,1,0,12,0.00
2013-4-7,72.0,55.0,35.2,72.0,50.8,35.2,100,90,30,30.27,30.08,7,1,16,0.00
2013-4-8,77.9,65.7,56.2,73.8,43.6,-4.0,100,60,6,30.14,30.01,6,1,22,0.00
2013-4-9,84.9,71.6,60.5,64.3,39.6,-26.4,100,47,2,30.14,30.01,5,2,18,0.00
2013-4-10,87.2,74.8,63.5,69.8,46.0,5.9,100,50,7,30.05,29.89,6,2,17,0.00
2013-4-11,80.8,73.4,64.4,73.1,36.2,-33.4,100,46,1,29.95,29.75,7,2,20,0.00
2013-4-12,79.5,71.1,63.0,73.1,40.6,-36.3,100,53,1,29.76,29.56,8,3,25,1.23
2013-4-13,73.9,61.5,49.2,63.3,21.3,-44.9,100,34,1,29.97,29.72,2,0,12,0.00
2013-4-14,81.5,63.3,43.6,66.8,46.6,28.3,100,64,23,30.07,29.97,2,0,12,0.00
2013-4-15,72.8,64.7,58.4,68.4,41.9,-13.6,100,65,4,30.18,29.99,3,0,15,0.04
2013-4-16,76.2,64.7,57.3,66.9,46.7,-7.8,100,72,4,30.28,30.16,2,0,6,0.00
2013-4-17,82.8,68.7,56.6,71.0,37.4,-42.7,100,56,1,30.19,30.07,5,1,12,0.00
2013-4-18,79.6,70.2,60.4,71.6,39.8,-35.1,100,55,1,30.16,30.00,3,1,16,0.00
2013-4-19,81.7,71.1,65.5,74.2,48.0,-30.9,100,68,1,30.01,29.67,8,3,30,0.52
2013-4-20,65.2,55.8,44.5,61.2,38.9,-42.7,100,74,1,30.24,29.77,7,1,22,0.10
2013-4-21,62.9,50.1,39.9,62.9,50.1,39.9,100,100,100,30.47,30.24,2,0,12,0.00
2013-4-22,62.8,49.4,35.7,62.8,49.4,35.7,100,100,100,30.46,30.25,2,0,12,0.00
2013-4-23,66.7,54.4,48.3,66.1,52.8,25.5,100,97,21,30.25,30.10,1,0,10,0.04
2013-4-24,76.4,61.9,45.6,71.5,47.7,14.4,100,74,12,30.12,29.93,7,2,21,0.00
2013-4-25,70.6,61.7,49.9,70.6,57.6,35.8,100,91,29,30.25,29.97,5,0,12,0.00
2013-4-26,73.0,57.7,45.1,70.4,50.5,31.9,100,84,28,30.39,30.25,1,0,9,0.00
2013-4-27,74.2,61.1,49.7,69.6,47.7,-0.7,100,74,7,30.35,30.23,2,0,8,0.00
2013-4-28,61.0,58.2,54.9,61.0,58.2,54.9,100,100,100,30.23,30.09,0,0,9,0.36
2013-4-29,68.7,61.2,54.7,68.7,47.2,-39.1,100,80,1,30.09,29.94,0,0,4,1.00
2013-4-30,66.0,60.1,55.6,66.0,36.9,-0.8,100,55,8,30.14,29.98,0,0,4,0.02